Regional Weather Roundup
Issued by NWS

Home | Current Version | Previous Version | Graphics & Text | Print | Product List | Glossary On
Versions: 1 2 3 4 5 6 7 8 9 10 11 12 13 14 15 16 17 18 19 20 21 22 23 24 25 26 27 28 29 30 31 32 33 34 35 36 37 38 39 40 41 42 43 44 45 46 47 48 49 50
000
ASUS44 KMEG 240400
RWRTN
TENNESSEE HOURLY STATE WEATHER ROUNDUP
NATIONAL WEATHER SERVICE MEMPHIS TN
1100 PM CDT MON MAY 23 2016

TNZ002-004-019-021-049-052-054-088>092-240500-
WEST TENNESSEE

CITY           SKY/WX    TMP DP  RH WIND       PRES   REMARKS
MEMPHIS INTL   MOCLDY    74  53  48 S6        29.97S
NWS MEMPHIS      N/A     69 N/A N/A MISG        N/A
JACKSON        CLOUDY    62  59  90 CALM      29.99S
DYERSBURG      CLOUDY    70  55  60 SE7       29.95F
UNION CITY     CLEAR     66  59  77 CALM      29.97F
PARIS          CLEAR     63  55  77 CALM      30.00S
LEXINGTON      CLEAR     61  61 100 CALM      30.00S
$$

TNZ008-025-027-028-033-062-065-066-240500-
NORTH MIDDLE TENNESSEE

CITY           SKY/WX    TMP DP  RH WIND       PRES   REMARKS
NASHVILLE      CLEAR     67  50  54 CALM      30.02S
CLARKSVILLE    CLEAR     63  52  67 SE3       30.00S
COOKEVILLE     CLEAR     52  48  87 CALM      30.04S
CROSSVILLE     CLEAR     61  44  53 CALM      30.08S
$$

TNZ061-075-076-078-094-096-097-240500-
SOUTH MIDDLE TENNESSEE

CITY           SKY/WX    TMP DP  RH WIND       PRES   REMARKS
TULLAHOMA      CLEAR     57  54  88 CALM      30.05S
WINCHESTER     PTCLDY    57  52  82 CALM      30.04S
MCMINNVILLE    CLEAR     55  52  88 CALM      30.05R
COLUMBIA       CLEAR    N/A N/A N/A CALM      30.00F
SHELBYVILLE    CLEAR     59  52  77 E3        30.04S
$$

TNZ017-018-042-046-047-240500-
NORTHEAST TENNESSEE

CITY           SKY/WX    TMP DP  RH WIND       PRES   REMARKS
TRI CITIES     CLEAR     53  50  89 CALM      30.09S
$$

TNZ012-013-036-069-073-074-240500-
CENTRAL EAST TENNESSEE

CITY           SKY/WX    TMP DP  RH WIND       PRES   REMARKS
KNOXVILLE      CLEAR     64  49  57 CALM      30.04R
OAK RIDGE      CLEAR     58  50  75 CALM      30.07R
GATLINBURG     CLEAR     55  50  82 CALM      30.05S
$$

TNZ083-085-099-240500-
SOUTHEAST TENNESSEE

CITY           SKY/WX    TMP DP  RH WIND       PRES   REMARKS
CHATTANOOGA    PTCLDY    63  54  72 NW3       30.03S
$$

SKY/WX REPORTED AS FAIR MEANS FEW OR NO CLOUDS BELOW
12 THOUSAND FEET.





USA.gov is the U.S. government's official web portal to all federal, state and local government web resources and services.